Volver al catálogo

SL-8 R/B

ActivoLEO
NORAD 13028·ROCKET BODY·🇷🇺 Russia

Lanzado Jan 7, 1982 desde Plesetsk Cosmodrome

Loading…

Próximos Pases (próximas 24 horas)

TLE

ActualizadoSource: Space-Track

Época: Sep 14, 2026, 08:06 UTC

1 13028U 82001B   26257.33789088  .00000148  00000-0  55269-4 0  9997
2 13028  74.0386 284.6788 0020418 254.1618 105.7286 14.39954589342420

Sigue SL-8 R/B en tiempo real con AllMySat

Download on the App Store